[[{"header":{"parameterUnit":"m.s-1","parameterCategory":1,"la1":30.2991,"la2":30.254,"lo1":-89.0895,"lo2":-89.0444,"dy":0.0017,"dx":0.0017,"nx":28,"ny":28,"refTime":"2024-02-12T03:00:00:Z","depth":0,"parameterNumber":2,"parameterNumberName":"U-component_of_WINDS"},"data":[0,0,0,0,0,0,0,0,0,0,0,0,0,0,0,0,0,0,0,0,0,0,0,0,0,0,0,0,0,0,0,0,0,0,0,0,0,0,0,0,0,0,0,0,0,0,0,0,0,0,0,0,0,0,0,0,0,0,-1.0046,-1.0046,0,-1.0049,-1.0049,-1.0049,-1.0061,-1.0061,-1.0062,-1.0062,-1.0064,-1.0064,-1.0063,0,0,0,0,0,0,0,0,0,0,0,0,0,-1.0049,-1.0049,-1.0046,-1.0046,-1.0046,-1.0049,-1.0049,-1.0049,-1.0061,-1.0061,-1.0062,-1.0062,-1.0064,-1.0064,-1.0063,0,0,0,0,0,0,0,0,0,0,0,0,0,-1.0049,-1.0049,-1.0046,-1.0052,-1.0053,-1.0049,-1.0049,-1.0049,-1.0061,-1.0061,-1.0062,-1.0062,-1.0064,-1.0064,-1.0063,-1.0053,0,0,-1.0062,-1.0062,0,0,0,0,0,0,0,0,-1.0049,-1.0049,-1.0051,-1.0052,-1.0053,-1.0055,-1.0051,-1.005,-1.0061,-1.0058,-1.0062,-1.0062,-1.0061,-1.0061,-1.006,-1.0053,-1.0053,-1.0062,-1.0062,-1.0062,-1.0062,0,0,0,0,0,0,0,-1.0049,-1.0049,-1.0047,-1.0051,-1.0052,-1.0055,-1.0055,-1.0051,-1.0057,-1.0058,-1.0059,-1.0059,-1.0061,-1.006,-1.006,-1.0053,-1.0062,-1.0062,-1.0062,-1.0062,-1.0037,-1.0036,0,0,0,0,0,0,-1.0048,-1.0049,-1.0047,-1.0047,-1.0052,-1.0054,-1.0055,-1.0054,-1.0057,-1.0058,-1.0059,-1.006,-1.0061,-1.0061,-1.006,-1.0048,-1.0062,-1.0062,-1.0062,-1.0037,-1.0037,-1.0036,0,0,0,0,0,0,-1.0048,-1.0048,-1.0047,-1.0048,-1.0048,-1.0054,-1.0053,-1.0054,-1.0053,-1.0058,-1.0059,-1.0057,-1.0061,-1.0061,-1.0055,-1.0048,-1.0062,-1.0061,-1.0038,-1.0037,-1.0036,-1.0023,0,0,0,0,0,0,-1.0048,-1.0048,-1.0045,-1.0048,-1.0048,-1.0042,-1.0052,-1.0054,-1.0053,-1.0054,-1.0056,-1.0057,-1.0061,-1.0055,-1.0054,-1.0048,-1.0061,-1.0038,-1.0037,-1.0037,-1.0024,-1.0021,-1.002,0,0,0,0,0,-1.0048,-1.004,-1.0044,-1.0044,-1.0044,-1.0041,-1.0041,-1.0047,-1.0052,-1.0048,-1.0051,-1.0057,-1.0049,-1.0054,-1.0054,-1.0047,-1.0039,-1.0038,-1.0037,-1.0024,-1.0022,-1.002,0,0,0,0,0,0,-1.0036,-1.0041,-1.0045,-1.0039,-1.0039,-1.0043,-1.0039,-1.0044,-1.0043,-1.0044,-1.005,-1.0051,-1.0043,-1.0045,-1.005,-1.0036,-1.0045,-1.0044,-1.0036,-1.0033,-1.0031,-1.0031,-1.0061,0,0,0,0,0,-1.0032,-1.003,-1.0035,-1.0028,-1.0028,-1.0033,-1.0032,-1.0036,-1.0037,-1.0038,-1.004,-1.004,-1.0037,-1.0036,-1.0034,-1.0024,-1.0024,-1.0019,-1.0017,-1.0015,-1.0014,-1.0008,-1.0005,-1.0033,-1.0033,-1.0033,0,0,-1.0025,-1.0027,-1.0025,-1.0025,-1.0027,-1.0023,-1.0034,-1.003,-1.0027,-1.0037,-1.0031,-1.0033,-1.0033,-1.0025,-1.0022,-1.0026,-1.0006,-1.0014,-1.0012,-1.0012,-1.0006,-1.0004,-1.0001,-1.0032,-1.0032,-1.0032,0,0,-1.0009,-1.0011,-1.0006,-1.0007,-1.0008,-1.0012,-1.001,-1.0013,-1.0015,-1.0009,-1.0016,-1.0013,-1.0008,-1.0008,-1.0007,-0.9991,-0.9996,-0.999,-0.998,-0.9974,-0.9971,-0.9969,-0.9962,-0.996,-0.9989,-0.9989,-0.9989,0,-0.9999,-0.9995,-1.0002,-0.9998,-0.9997,-1.0006,-1.0,-1.0,-1.0001,-1.0,-1.0005,-0.9999,-1.0,-0.9991,-0.9987,-0.9987,-0.9985,-0.999,-0.9971,-0.9969,-0.9968,-0.9961,-0.9959,-0.9988,-0.9988,-0.9989,-0.9989,0,-0.9983,-0.998,-0.9975,-0.9975,-0.9974,-0.9969,-0.9974,-0.9972,-0.9976,-0.9979,-0.9972,-0.9974,-0.9972,-0.997,-0.9974,-0.9962,-0.9964,-0.997,-0.9979,-0.9964,-0.9958,-0.9956,-0.9987,-0.9987,-0.9988,-0.9988,0,0,-0.9959,-0.9963,-0.9961,-0.9961,-0.9963,-0.9961,-0.9956,-0.9954,-0.9951,-0.9952,-0.9947,-0.9943,-0.9948,-0.9947,-0.9951,-0.9946,-0.9931,-0.9952,-0.9952,-0.9947,-0.9916,-0.9911,-0.9908,-0.9935,-0.9934,-0.9934,-0.9916,0,-0.9944,-0.9935,-0.9941,-0.9931,-0.9928,-0.9936,-0.9931,-0.9932,-0.9934,-0.9931,-0.9933,-0.993,-0.9938,-0.9937,-0.9932,-0.9934,-0.9925,-0.9936,-0.9929,-0.9929,-0.9928,-0.9905,-0.99,-0.9882,-0.9913,-0.9913,-0.9913,0,-0.9924,-0.9924,-0.9914,-0.9916,-0.9915,-0.991,-0.9909,-0.9906,-0.9906,-0.9908,-0.9907,-0.9912,-0.9906,-0.9915,-0.9906,-0.9913,-0.9911,-0.9911,-0.9911,-0.991,-0.9919,-0.9902,-0.9877,-0.9874,-0.9909,-0.991,-0.991,0,-0.9907,-0.9903,-0.9897,-0.9897,-0.9899,-0.9896,-0.9896,-0.9897,-0.9896,-0.9894,-0.9893,-0.989,-0.9889,-0.9886,-0.989,-0.9897,-0.988,-0.989,-0.9881,-0.9881,-0.9876,-0.9876,-0.9849,-0.9877,-0.9877,-0.9877,-0.9877,0,-0.9888,-0.9882,-0.9889,-0.9885,-0.9877,-0.9883,-0.9875,-0.9877,-0.9877,-0.9873,-0.988,-0.9876,-0.9882,-0.9877,-0.988,-0.9872,-0.9872,-0.9872,-0.9873,-0.9871,-0.9871,-0.9869,-0.987,-0.9876,-0.9876,-0.9876,-0.9877,0,-0.9867,-0.9872,-0.9865,-0.9868,-0.9868,-0.9863,-0.9865,-0.986,-0.9863,-0.9857,-0.9856,-0.986,-0.9856,-0.986,-0.9855,-0.9857,-0.9845,-0.9848,-0.9845,-0.9846,-0.9836,-0.9836,-0.9806,-0.9802,-0.9833,-0.9832,-0.9832,0,-0.9854,-0.985,-0.9852,-0.985,-0.985,-0.9846,-0.9845,-0.9851,-0.9848,-0.9848,-0.9843,-0.9839,-0.9836,-0.9829,-0.983,-0.9827,-0.9829,-0.9819,-0.9828,-0.9826,-0.9827,-0.9827,-0.9826,-0.9816,-0.9816,-0.9816,-0.9815,0,-0.9831,-0.9834,-0.9831,-0.9829,-0.9827,-0.9826,-0.9825,-0.9822,-0.9828,-0.9825,-0.9821,-0.9818,-0.9814,-0.9809,-0.9806,-0.9806,-0.9811,-0.9812,-0.981,-0.9807,-0.9805,-0.9805,-0.9839,-0.9813,-0.9813,-0.9813,-0.9813,-0.9813,-0.9813,-0.9809,-0.981,-0.9806,-0.9806,-0.9805,-0.9801,-0.9803,-0.98,-0.9797,-0.98,-0.9794,-0.9794,-0.979,-0.9789,-0.9784,-0.9788,-0.9785,-0.9784,-0.9783,-0.9781,-0.9807,-0.9784,-0.9784,-0.9784,-0.9784,-0.9784,0,-0.979,-0.979,-0.9787,-0.9786,-0.9783,-0.9789,-0.9788,-0.9785,-0.978,-0.9779,-0.9776,-0.977,-0.9766,-0.9767,-0.9763,-0.9758,-0.976,-0.9757,-0.9757,-0.9756,-0.9778,-0.978,-0.9755,-0.9755,-0.9755,-0.9755,-0.9755,-0.9755,-0.9777,-0.9769,-0.9772,-0.9764,-0.9765,-0.9759,-0.9758,-0.9757,-0.9756,-0.9749,-0.9746,-0.9747,-0.9747,-0.9742,-0.9738,-0.9738,-0.9736,-0.9731,-0.9732,-0.9752,-0.9755,-0.9758,-0.976,-0.9731,-0.9731,-0.9711,-0.9711,-0.9711]},{"header":{"parameterUnit":"m.s-1","parameterCategory":1,"la1":30.2991,"la2":30.254,"lo1":-89.0895,"lo2":-89.0444,"dy":0.0017,"dx":0.0017,"nx":28,"ny":28,"refTime":"2024-02-12T03:00:00:Z","depth":0,"parameterNumber":3,"parameterNumberName":"V-component_of_WINDS"},"data":[0,0,0,0,0,0,0,0,0,0,0,0,0,0,0,0,0,0,0,0,0,0,0,0,0,0,0,0,0,0,0,0,0,0,0,0,0,0,0,0,0,0,0,0,0,0,0,0,0,0,0,0,0,0,0,0,0,0,4.0651,4.0654,0,4.0969,4.0972,4.0976,4.1061,4.1059,4.1057,4.1055,4.1386,4.1396,4.1406,0,0,0,0,0,0,0,0,0,0,0,0,0,4.012,4.013,4.0651,4.0655,4.0659,4.0968,4.0973,4.0977,4.1061,4.1059,4.1056,4.1054,4.1382,4.1395,4.1407,0,0,0,0,0,0,0,0,0,0,0,0,0,4.0386,4.0133,4.065,4.0738,4.0749,4.0967,4.0973,4.0978,4.1062,4.1059,4.1056,4.1053,4.1378,4.1393,4.1409,4.1565,0,0,4.1458,4.1464,0,0,0,0,0,0,0,0,4.0371,4.0405,4.0721,4.0732,4.0745,4.0972,4.0907,4.1175,4.1062,4.0943,4.1055,4.1052,4.1251,4.1277,4.1343,4.158,4.1594,4.1459,4.1469,4.1475,4.148,0,0,0,0,0,0,0,4.0352,4.0392,4.0777,4.0725,4.074,4.0763,4.0797,4.0958,4.1109,4.0953,4.096,4.0996,4.1257,4.1327,4.1351,4.1599,4.1459,4.1473,4.1482,4.1489,4.1981,4.1985,0,0,0,0,0,0,4.0318,4.0376,4.0767,4.0786,4.0547,4.0774,4.0813,4.0902,4.1108,4.1136,4.0998,4.0999,4.1302,4.1333,4.1363,4.1561,4.1475,4.149,4.1499,4.1978,4.1982,4.1986,0,0,0,0,0,0,4.0306,4.0352,4.0754,4.0583,4.0636,4.0787,4.0886,4.091,4.0981,4.1142,4.117,4.1043,4.1301,4.1341,4.1514,4.1574,4.1497,4.1512,4.1974,4.1979,4.1984,4.1956,0,0,0,0,0,0,4.0291,4.0347,4.0407,4.0584,4.0645,4.0898,4.089,4.0918,4.1007,4.1011,4.1191,4.1218,4.1301,4.149,4.153,4.1594,4.1524,4.1969,4.1976,4.1982,4.1952,4.1959,4.1966,0,0,0,0,0,4.0271,4.0387,4.041,4.0456,4.0723,4.0901,4.0936,4.1029,4.1012,4.1074,4.1177,4.1212,4.1559,4.1507,4.1552,4.1622,4.1966,4.1974,4.1982,4.1949,4.1958,4.1966,0,0,0,0,0,0,4.0216,4.0412,4.0439,4.0615,4.0741,4.0915,4.0997,4.1035,4.1169,4.1168,4.1278,4.1318,4.1484,4.157,4.1508,4.1784,4.1763,4.1781,4.1723,4.1732,4.1739,4.1717,4.1537,0,0,0,0,0,4.0223,4.035,4.0516,4.0655,4.0717,4.0845,4.0927,4.0987,4.1122,4.1176,4.1292,4.1423,4.1562,4.1651,4.1788,4.1963,4.2005,4.2034,4.2041,4.2045,4.2061,4.2162,4.2178,4.2012,4.2012,4.2012,0,0,4.0242,4.0365,4.0439,4.0647,4.0752,4.0883,4.089,4.1028,4.1127,4.1198,4.1369,4.1457,4.1611,4.1786,4.1869,4.1863,4.2115,4.2056,4.2058,4.2072,4.2172,4.2187,4.2201,4.2018,4.2017,4.2016,0,0,4.0343,4.0447,4.0576,4.068,4.0837,4.0921,4.0951,4.112,4.1182,4.1354,4.141,4.153,4.1766,4.1874,4.1959,4.2099,4.2137,4.214,4.2177,4.2275,4.2288,4.23,4.2353,4.237,4.2154,4.2153,4.2153,0,4.0347,4.0545,4.0637,4.0773,4.0864,4.0931,4.1064,4.116,4.1354,4.1416,4.1405,4.1704,4.1812,4.2014,4.2048,4.2114,4.2154,4.2122,4.2278,4.2291,4.2304,4.2356,4.2375,4.2153,4.2153,4.2153,4.2153,0,4.0543,4.0679,4.0765,4.0949,4.1049,4.1182,4.1296,4.1386,4.1437,4.1522,4.1698,4.1829,4.1994,4.2046,4.2097,4.2256,4.2248,4.2255,4.2238,4.2318,4.2368,4.2389,4.2153,4.2153,4.2153,4.2153,0,0,4.0622,4.0853,4.0883,4.0968,4.1145,4.1254,4.139,4.1549,4.1626,4.1756,4.1875,4.2072,4.2081,4.2178,4.2242,4.2327,4.2432,4.2326,4.2331,4.2344,4.2618,4.2614,4.2635,4.2456,4.246,4.2464,4.2607,0,4.0747,4.0992,4.1079,4.1282,4.141,4.1475,4.1594,4.1716,4.1799,4.1921,4.2013,4.2153,4.2152,4.2211,4.2298,4.2401,4.2489,4.2391,4.2571,4.2576,4.2534,4.2661,4.2657,4.2785,4.2626,4.263,4.2632,0,4.0928,4.1059,4.1274,4.1436,4.1493,4.1598,4.1752,4.1867,4.2007,4.2062,4.2169,4.2226,4.2373,4.2342,4.2547,4.2478,4.2556,4.2617,4.2624,4.2648,4.2612,4.2692,4.2828,4.2849,4.2664,4.2661,4.2659,0,4.0967,4.1198,4.1357,4.1427,4.1618,4.1691,4.1775,4.1912,4.2002,4.2136,4.2197,4.2346,4.2429,4.2544,4.2641,4.2609,4.2838,4.2814,4.289,4.2888,4.2939,4.2935,4.3094,4.2982,4.2982,4.2981,4.2981,0,4.11,4.123,4.1377,4.1475,4.1623,4.1721,4.1865,4.1953,4.2074,4.2191,4.2255,4.2365,4.2484,4.2609,4.2685,4.2845,4.2881,4.2931,4.2951,4.2928,4.2922,4.2984,4.2979,4.2987,4.2986,4.2985,4.2984,0,4.1171,4.1274,4.1452,4.1618,4.1663,4.1765,4.1908,4.2006,4.2091,4.2239,4.2279,4.2413,4.2564,4.267,4.2864,4.2916,4.3089,4.3106,4.3041,4.3052,4.3123,4.3116,4.333,4.3365,4.3225,4.3227,4.3227,0,4.1251,4.1353,4.1529,4.1612,4.1695,4.1827,4.1919,4.2019,4.2112,4.2279,4.2358,4.2512,4.2642,4.288,4.2996,4.3145,4.3168,4.3233,4.3191,4.3166,4.3174,4.3168,4.318,4.324,4.3241,4.3242,4.3243,0,4.1384,4.143,4.156,4.1708,4.1815,4.1937,4.2059,4.2124,4.2245,4.2347,4.2501,4.2601,4.2799,4.2953,4.3112,4.32,4.3244,4.3254,4.328,4.326,4.322,4.3246,4.3062,4.325,4.3249,4.3249,4.3248,4.3248,4.1465,4.1559,4.1697,4.184,4.1942,4.2055,4.2156,4.2252,4.2382,4.255,4.26,4.2761,4.2899,4.3118,4.3208,4.3336,4.3333,4.3369,4.338,4.3388,4.3389,4.3195,4.3365,4.3365,4.3365,4.3365,4.3365,0,4.1604,4.1696,4.1826,4.1994,4.2107,4.2134,4.227,4.2364,4.2504,4.2628,4.2753,4.2931,4.308,4.3206,4.336,4.3439,4.3463,4.3477,4.3474,4.3494,4.3382,4.3345,4.3455,4.3455,4.3455,4.3455,4.3455,4.3455,4.169,4.185,4.1912,4.2124,4.2216,4.2372,4.2449,4.2554,4.2653,4.2848,4.2972,4.3052,4.3178,4.3342,4.3481,4.3514,4.357,4.358,4.3619,4.3512,4.3502,4.3492,4.3459,4.359,4.3591,4.3721,4.3722,4.3723]}]]